This is the latest recevied weather packets stored in our database for station/object KI6PPU. If no packets are shown the sender has not sent any weather packets the latest 10 day(s).
| Time | Temp. | Humidity | Pressure | Rain* | Wind** | Luminosity | Snow |
|---|---|---|---|---|---|---|---|
| 1777659413 | 25° C | 56% | 1016.7 hPa | 0 mm | - | 861 W/m² | - |
| 1777659110 | 25° C | 60% | 1016.8 hPa | 0 mm | - | 669 W/m² | - |
| 1777658808 | 25° C | 56% | 1017 hPa | 0 mm | - | 788 W/m² | - |
| 1777658504 | 25° C | 62% | 1016.8 hPa | 0 mm | - | 928 W/m² | - |
| 1777658200 | 24.44° C | 59% | 1017 hPa | 0 mm | - | 920 W/m² | - |
| 1777657898 | 24.44° C | 56% | 1016.9 hPa | 0 mm | - | 793 W/m² | - |
| 1777657594 | 25° C | 56% | 1016.9 hPa | 0 mm | - | 947 W/m² | - |
| 1777657292 | 24.44° C | 59% | 1016.8 hPa | 0 mm | - | 801 W/m² | - |
| 1777656989 | 23.89° C | 56% | 1016.8 hPa | 0 mm | - | 952 W/m² | - |
| 1777656686 | 23.33° C | 56% | 1016.8 hPa | 0 mm | - | 817 W/m² | - |
| 1777656382 | 23.89° C | 56% | 1016.9 hPa | 0 mm | - | 788 W/m² | - |
| 1777656077 | 23.33° C | 56% | 1016.8 hPa | 0 mm | - | 608 W/m² | - |
| 1777655773 | 23.33° C | 53% | 1016.9 hPa | 0 mm | - | 888 W/m² | - |
| 1777655470 | 22.78° C | 55% | 1017 hPa | 0 mm | - | 805 W/m² | - |
| 1777655167 | 22.78° C | 56% | 1016.9 hPa | 0 mm | - | 511 W/m² | - |
| 1777654864 | 22.78° C | 54% | 1016.9 hPa | 0 mm | - | 564 W/m² | - |
| 1777654561 | 22.78° C | 58% | 1017.1 hPa | 0 mm | - | 733 W/m² | - |
| 1777654259 | 21.67° C | 58% | 1017 hPa | 0 mm | - | 553 W/m² | - |
| 1777653956 | 21.11° C | 61% | 1016.9 hPa | 0 mm | - | 429 W/m² | - |
| 1777653653 | 21.11° C | 59% | 1016.9 hPa | 0 mm | - | 683 W/m² | - |
| 1777653349 | 21.67° C | 60% | 1017 hPa | 0 mm | - | 624 W/m² | - |
| 1777653047 | 21.11° C | 57% | 1016.9 hPa | 0 mm | - | 577 W/m² | - |
| 1777652743 | 20.56° C | 58% | 1016.9 hPa | 0 mm | - | 653 W/m² | - |
| 1777652440 | 20.56° C | 58% | 1016.9 hPa | 0 mm | - | 526 W/m² | - |
| 1777652137 | 20° C | 59% | 1017 hPa | 0 mm | - | 558 W/m² | - |
* Rain latest hour (hover to see other rain measurements)
** Current wind speed in m/s (hover to see current wind gust speed)